Find Starlink 5448

NORAD ID: 54770 Int'l Des: 2022-175 Owner: SPXS Country: US Constellation: starlink operational
LEOCIRCULAR

リアルタイム位置

3D地球を読み込み中...

Starlink 5448について

説明を読み込み中...

次回通過

Passes for default location (London). Set your location on the main map for personalized predictions.

高度履歴

Loading altitude history...

軌道要素

1 54770U 22175N 26126.29664990 -.00000164 00000-0 77955-5 0 9992
2 54770 53.2164 130.6964 0001177 81.9907 278.1218 15.08836795188823
Epoch: May 6, 2026 • Age: 5 hours

現在のステータス

高度 555.0 km
速度 7.58 km/s
衛星直下点 -43.51°S, 46.19°E
打ち上げ日 Dec 17, 2022
運用期間 3.3 years
タイプ internet

技術仕様

分類 Payload
質量 305.00 kg
乾燥質量 290.00 kg
総質量 305.00 kg
長さ 0.20 m
直径 2.80 m
スパン 9.00 m
形状 Box + pan
製造者 SPXS
バスタイプ Starlink
フェーズステータス In Orbit
所有者/国 SPXS/US

Most Searched